Flag for Japan Weather past 2 weeks in Hiroshima, Japan

Now
43 °F

Rain showers. Fog.


Feels Like: 38 °F
Forecast: 35 / 44 °F
Wind: 9 mph from North

Location: Iwakuni Marine Corps Air Station

Current Time: Dec 20, 2014 at 7:09:34 AM

Latest Report: Dec 20, 2014 at 5:55 AM


Visibility: 2 mi

Pressure: 30.10 "Hg

Humidity: 93%

Dew point: 41 °F

Location of HiroshimaLocation

Historic Weather in Hiroshima — Graph

°F

Hiroshima temperature yesterday

Maximum temperature yesterday: 49 °F (at 1:55 PM)
Minimum temperature yesterday: 34 °F (at 5:55 AM)
Average temperature yesterday: 40 °F

Past Weeks' High & Low Weather Summary

 TemperatureHumidityPressure
High122 °F (Dec 12, 3:55 AM)96% (Dec 16, 5:55 AM)30.53 "Hg (Dec 16, 5:55 AM)
Low33 °F (Dec 17, 2:55 AM)5% (Dec 12, 3:55 AM)29.78 "Hg (Dec 16, 1:55 PM)
Average42 °F64%30.20 "Hg
* Reported Dec 5 5:55 AM — Dec 20 5:55 AM, Hiroshima, Weather by CustomWeather, © 2014

Note: Actual official high and low records may vary slightly from our data, if they occured in-between our weather recording intervals... More about our weather records

Advertising

Hiroshima weather history for previous 24 hours

 ConditionsComfort  
Time TempWeatherWind HumidityBarometerVisibility
5:55 AM
Dec 20
43 °FRain showers. Fog.9 mph93%30.10 "Hg2 mi
4:55 AM42 °FSprinkles. Fog.7 mph92%30.14 "Hg4 mi
3:55 AM40 °FSprinkles. Fog.7 mph93%30.17 "Hg4 mi
2:55 AM40 °FSprinkles. Fog.8 mph89%30.20 "Hg6 mi
1:55 AM41 °FSprinkles. Fog.8 mph86%30.22 "Hg6 mi
12:55 AM122 °FSprinkles. Passing clouds.7 mph5%30.25 "HgN/A
11:55 PM
Dec 19
41 °FPassing clouds.7 mph76%30.29 "HgN/A
10:55 PM40 °FPartly cloudy.8 mph80%30.32 "HgN/A
9:55 PM40 °FPassing clouds.6 mph77%30.33 "HgN/A
8:55 PM40 °FPassing clouds.7 mph77%30.36 "HgN/A
7:55 PM40 °FPartly cloudy.9 mph77%30.38 "HgN/A
6:55 PM39 °FPartly cloudy.7 mph70%30.37 "HgN/A
5:55 PM41 °FPartly cloudy.6 mph55%30.40 "HgN/A
4:55 PM44 °FBroken clouds.3 mph49%30.40 "HgN/A
3:55 PM47 °FBroken clouds.3 mph44%30.37 "HgN/A
2:55 PM46 °FBroken clouds.3 mph46%30.39 "HgN/A
1:55 PM49 °FPartly sunny.5 mph41%30.43 "HgN/A
12:55 PM47 °FBroken clouds.5 mph42%30.44 "HgN/A
11:55 AM48 °FPartly sunny.6 mph41%30.47 "HgN/A
10:55 AM39 °FPartly sunny.6 mph65%30.50 "HgN/A
9:55 AM39 °FPartly sunny.5 mph65%30.53 "HgN/A
8:55 AM35 °FScattered clouds.6 mph75%30.53 "HgN/A
7:55 AM34 °FBroken clouds.8 mph79%30.53 "HgN/A
Weather by CustomWeather, © 2014

See weather overviewHow to use our weather pages